Back to catalog

CZ-6A DEB

AliveSSO
NORAD 56670·DEBRIS·🇨🇳 China

Launched Nov 11, 2022 from Taiyuan Satellite Launch Center

Loading…

Next Passes (next 24 hours)

TLE

AgingSource: Space-Track

Epoch: Sep 6, 2026, 06:24 UTC

1 56670U 22151AGW 26249.26675346  .00000955  00000-0  49477-3 0  9990
2 56670  98.8113 250.5034 0045359  51.7732 308.7512 14.16728147174050

Track CZ-6A DEB in real time with AllMySat

Download on the App Store